Regional Weather Roundup
Issued by NWS Midland/Odessa, TX

Skip options and go directly to product.
Home | Oldest Version | Previous Version | Current Version | All | Graphics & Text | Save Text | Print | Product List | Glossary On

Skip product version selection by date and time.   
825
ASUS44 KMAF 221710
RWRMAF
MIDLAND AREA WEATHER ROUNDUP
NATIONAL WEATHER SERVICE MIDLAND TX
1200 PM CDT FRI MAY 22 2015

...IN SOUTHWEST TEXAS AND SOUTHEAST NEW MEXICO...

CITY           SKY/WX    TMP DP  RH WIND       PRES   REMARKS
ALPINE         MOSUNNY   76  57  51 SW8G17    30.17F
ANDREWS        CLOUDY    60  60 100 CALM      30.13R
ARTESIA        CLOUDY    59  55  88 VRB5      30.12F
BIG SPRING     CLOUDY    64  61  91 E6        30.13S
CARLSBAD       CLOUDY    61  54  77 MISG      30.10F
DRYDEN           N/A     74  66  76 VRB3      30.06S
FORT STOCKTON  MOSUNNY   68  60  75 CALM      30.10F
GUAD PASS      SUNNY     62  54  74 VRB5      30.16F
HOBBS          CLOUDY    57  57 100 CALM      30.14S
MARFA          SUNNY     73  59  60 S14       30.16F
MIDLAND AIRPK  CLOUDY    64  64 100 E5        30.12S FOG
MIDLAND INTL   CLOUDY    63  61  93 E5        30.11R FOG
ODESSA         CLOUDY    63  60  90 E7        30.11S FOG
PECOS          CLOUDY    62  57  84 CALM      30.10S
PRESIDIO       FAIR      82  58  44 S3        30.02F
SEMINOLE       CLOUDY    59  58  97 CALM      30.14S
SNYDER         CLOUDY    59  58  97 CALM      30.13S
WINK           CLOUDY    65  59  81 CALM      30.09S
$$
...OTHER STATIONS IN TEXAS...

CITY           SKY/WX    TMP DP  RH WIND       PRES   REMARKS
ABILENE        CLOUDY    63  61  93 SE14      30.12S
AMARILLO       CLOUDY    55  52  89 S12       30.14S
AUSTIN         CLOUDY    71  69  93 E9        30.10S
BROWNSVILLE    MOSUNNY   87  76  69 SE14G22   30.02R
CORPUS CHRISTI PTSUNNY   84  74  71 SE13      30.04R
DALLAS FTW     CLOUDY    61  53  75 E8        30.15S
DEL RIO        CLOUDY    72  68  87 SE13      30.05R
EL PASO        SUNNY     69  52  54 E6        30.05F
HOUSTON INT    CLOUDY    70  63  78 E9        30.15S
LUBBOCK        CLOUDY    57  54  89 E8        30.14S
SAN ANGELO     CLOUDY    69  64  84 SE9       30.10S
SAN ANTONIO    CLOUDY    73  69  87 E10       30.09R FOG
WACO           CLOUDY    68  63  84 E12       30.14S
WICHITA FALLS  NOT AVBL
$$
...OTHER LOCATIONS IN NEW MEXICO...

CITY           SKY/WX    TMP DP  RH WIND       PRES   REMARKS
ALAMAGORDO     SUNNY     66  48  52 S9        30.09F
ALBUQUERQUE    PTSUNNY   59  45  59 SW9       30.11F
CANNON AFB     CLOUDY    55  52  88 SW6       30.14R
CLOVIS         CLOUDY    55  50  82 S7        30.15S
HOLLOMAN AFB   MOSUNNY   65  53  65 CALM      30.07F
ROSWELL        CLOUDY    60  52  74 SE10      30.10F
RUIDOSO        SUNNY     61  36  39 SW12G24   30.18F
SANTA FE       PTSUNNY   53  42  66 MISG      30.13S
TRUTH OR CONSE SUNNY     63  45  51 S7        30.07F
TUCUMCARI      CLOUDY    59  50  72 S12       30.10
$$

USA.gov is the U.S. government's official web portal to all federal, state and local government web resources and services.